Torna al catalogo

ARIANE 5 R/B

AttivoHEO
NORAD 40273·ROCKET BODY·🇫🇷 France

Lanciato Oct 16, 2014 da Guiana Space Centre

Loading…

Prossimi Passaggi (prossime 24 ore)

TLE

AggiornatoSource: Space-Track

Epoca: Sep 13, 2026, 21:27 UTC

1 40273U 14062C   26256.89417352  .00003205  00000-0  63539-3 0  9998
2 40273   6.5226   0.6779 6946281 121.1954 324.4595  2.71708520106435

Traccia ARIANE 5 R/B in tempo reale con AllMySat

Download on the App Store